Regional Weather Roundup
Issued by NWS Albany, NY

Home | Current Version | Previous Version | Graphics & Text | Print | Product List | Glossary Off
Versions: 1 2 3 4 5 6 7 8 9 10 11 12 13 14 15 16 17 18 19 20 21 22 23 24 25 26 27 28 29 30 31 32 33 34 35 36 37 38 39 40 41 42 43 44 45 46 47 48 49 50

000
ASUS41 KALY 021310
RWRALY

NEW YORK STATE HOURLY WEATHER ROUNDUP
NATIONAL WEATHER SERVICE ALBANY NY
900 AM EDT SUN AUG 02 2015

NOTE: "FAIR" INDICATES FEW OR NO CLOUDS BELOW 12,000 FEET WITH NO
SIGNIFICANT WEATHER AND/OR NO OBSTRUCTIONS TO VISIBILITY.

NYZ032-033-038>043-046>054-057>066-NYZ062>081-021400-
EAST


CITY           SKY/WX    TMP DP  RH WIND       PRES   REMARKS
ALBANY         MOSUNNY   71  58  63 SE5       29.90S
GLENS FALLS    SUNNY     66  57  72 S6        29.88F
POUGHKEEPSIE   SUNNY     73  60  63 S5        29.91R
NEWBURGH       SUNNY     70  59  68 W6        29.94R
MONTGOMERY     SUNNY     71  60  68 SW5       29.93R
WHITE PLAINS   SUNNY     77  58  51 CALM      29.93R
ISLIP          SUNNY     78  59  51 E5        29.91R
NEW YORK CITY  MOSUNNY   79  57  46 CALM      29.91R
CENTRAL PARK   SUNNY     76  57  51 CALM      29.95R
$$

NYZ005>009-017-018-044>046-055-056-021400-
CENTRAL


CITY           SKY/WX    TMP DP  RH WIND       PRES   REMARKS
FULTON         SUNNY     72  60  66 SW7       29.87S
SYRACUSE       MOSUNNY   73  59  61 SW6       29.87S
ROME           SUNNY     67  58  72 CALM      29.90R
ELMIRA         SUNNY     65  58  78 CALM      29.91S
BINGHAMTON     SUNNY     66  55  67 W8        29.93R
MONTICELLO     SUNNY     64  57  77 CALM      29.97R
$$

NYZ026>034-041>043-021400-
NORTH


CITY           SKY/WX    TMP DP  RH WIND       PRES   REMARKS
WATERTOWN      SUNNY     70  62  76 VRB6      29.85S
FORT DRUM      NOT AVBL
MASSENA        PTSUNNY   68  62  81 SW15      29.84R
SARANAC LAKE   MOSUNNY   63  59  87 SW8       29.88S
PLATTSBURGH    SUNNY     71  60  68 CALM      29.84S
$$

NYZ001>004-010>016-019>021-021400-
WEST


CITY           SKY/WX    TMP DP  RH WIND       PRES   REMARKS
NIAGARA FALLS  MOSUNNY   71  60  68 SW10      29.86R
BUFFALO        PTSUNNY   73  61  65 SW13      29.87S
DUNKIRK        SUNNY     72  60  66 S9        29.90R
JAMESTOWN      SUNNY     64  55  72 SW7       29.96R
WELLSVILLE     SUNNY     68  54  60 SW6       29.97R
ROCHESTER      PTSUNNY   70  59  68 SW10      29.87S
PENN YAN       SUNNY     70  57  63 S8        29.90R
$$

             KEY
       WCI = WIND CHILL INDEX
       VSB = VISIBILITY
       HX  = HEAT INDEX
$$



USA.gov is the U.S. government's official web portal to all federal, state and local government web resources and services.